Weather History for Fremont, MI

Change the Weather History Date:

Monday, March 25, 2013

  Actual Average (KMKG) Record (KMKG)
Temperature  
Mean Temperature 32 °F 38 °F  
Max Temperature 37 °F 47 °F 76 °F (2007)
Min Temperature 26 °F 30 °F 1 °F (1971)
Degree Days  
Heating Degree Days 34 27  
Month to date heating degree days 777  
Since 1 July heating degree days 5509  
Cooling Degree Days 0 0  
Month to date cooling degree days 0  
Year to date cooling degree days 0  
Moisture  
Dew Point 22 °F    
Average Humidity 65    
Maximum Humidity 80    
Minimum Humidity 50    
Precipitation  
Precipitation 0.00 in 0.07 in 1.10 in (1954)
Month to date precipitation 1.78  
Year to date precipitation 5.64  
Snow  
Snow 0.00 in 0.20 in 6.00 in (1930)
Month to date snowfall 7.9  
Since 1 July snowfall 90.3  
Snow Depth -    
Sea Level Pressure  
Sea Level Pressure 29.81 in    
Wind  
Wind Speed 10 mph (NNW)    
Max Wind Speed 15 mph    
Max Gust Speed 23 mph    
Visibility 10 miles    
Events      
T = Trace of Precipitation, MM = Missing Value Source: NWS Daily Summary

Daily Weather History Graph

Daily Weather History Graph

Search for Another Location

Airport:

Trip Planner

Search our weather history database for the weather conditions in past years. The results will help you decide how hot, cold, wet, or windy it might be!

Date:

Astronomy

Mar. 25, 2013 Rise Set
Actual Time 7:37 AM EDT 8:02 PM EDT
Civil Twilight 7:09 AM EDT 8:31 PM EDT
Nautical Twilight 6:35 AM EDT 9:05 PM EDT
Astronomical Twilight 6:00 AM EDT 9:39 PM EDT
Moon 6:32 PM EDT (3/25) 6:23 AM EDT (3/25)
Length of Visible Light 13h 22m
Length of Day
12h 24m
Waxing Gibbous, 96% of the Moon is Illuminated
Mar 25
Waxing Gibbous
Mar 27
Full
Apr 3
Last Quarter
Apr 10
New
Apr 18
First Quarter

Hourly Weather History & Observations

Time (EDT) Temp. Windchill Dew Point Humidity Pressure Visibility Wind Dir Wind Speed Gust Speed Precip Events Conditions
12:15 AM 31.1 °F 21.4 °F 18.3 °F 59% 29.74 in 10.0 mi NNE 12.7 mph 23.0 mph N/A   Overcast
12:34 AM 31.1 °F 21.4 °F 18.9 °F 61% 29.74 in 10.0 mi NNE 12.7 mph 19.6 mph N/A   Overcast
12:55 AM 31.1 °F 20.9 °F 19.2 °F 61% 29.74 in 10.0 mi NNE 13.8 mph 18.4 mph N/A   Overcast
1:14 AM 31.1 °F 23.1 °F 19.4 °F 62% 29.74 in 10.0 mi NNE 9.2 mph 21.9 mph N/A   Overcast
1:34 AM 31.1 °F 23.1 °F 19.2 °F 61% 29.74 in 10.0 mi North 9.2 mph 16.1 mph N/A   Overcast
1:55 AM 31.1 °F 22.4 °F 18.9 °F 61% 29.74 in 10.0 mi North 10.4 mph - N/A   Overcast
2:14 AM 30.7 °F 22.0 °F 19.0 °F 62% 29.74 in 10.0 mi North 10.4 mph - N/A   Overcast
2:35 AM 30.2 °F 21.3 °F 19.2 °F 64% 29.73 in 10.0 mi North 10.4 mph - N/A   Mostly Cloudy
2:54 AM 29.8 °F 22.2 °F 19.0 °F 64% 29.73 in 10.0 mi North 8.1 mph - N/A   Scattered Clouds
3:14 AM 29.3 °F 21.5 °F 19.2 °F 66% 29.73 in 10.0 mi North 8.1 mph - N/A   Clear
3:35 AM 29.3 °F 20.2 °F 19.2 °F 66% 29.73 in 10.0 mi North 10.4 mph - N/A   Clear
3:54 AM 29.1 °F 20.6 °F 19.4 °F 67% 29.72 in 10.0 mi North 9.2 mph - N/A   Clear
4:15 AM 28.4 °F 21.2 °F 19.4 °F 69% 29.71 in 10.0 mi North 6.9 mph - N/A   Clear
4:54 AM 28.2 °F 21.0 °F 19.9 °F 71% 29.70 in 10.0 mi North 6.9 mph - N/A   Clear
5:15 AM 28.0 °F 21.7 °F 19.9 °F 72% 29.70 in 10.0 mi North 5.8 mph - N/A   Clear
5:34 AM 27.7 °F 19.6 °F 19.8 °F 72% 29.70 in 10.0 mi North 8.1 mph - N/A   Clear
5:55 AM 27.5 °F 19.3 °F 19.9 °F 73% 29.70 in 10.0 mi North 8.1 mph - N/A   Clear
6:15 AM 27.7 °F 19.6 °F 20.3 °F 74% 29.70 in 10.0 mi North 8.1 mph - N/A   Clear
6:34 AM 27.9 °F 22.6 °F 20.5 °F 74% 29.71 in 10.0 mi North 4.6 mph - N/A   Clear
6:55 AM 27.1 °F 19.7 °F 20.7 °F 77% 29.72 in 10.0 mi NNW 6.9 mph - N/A   Clear
7:14 AM 27.0 °F 19.5 °F 20.7 °F 77% 29.72 in 10.0 mi North 6.9 mph - N/A   Clear
7:34 AM 27.1 °F 19.7 °F 21.0 °F 78% 29.73 in 10.0 mi North 6.9 mph - N/A   Clear
7:55 AM 26.8 °F 18.5 °F 21.2 °F 79% 29.73 in 10.0 mi North 8.1 mph - N/A   Clear
8:14 AM 27.1 °F 18.9 °F 21.7 °F 80% 29.74 in 10.0 mi North 8.1 mph - N/A   Scattered Clouds
8:35 AM 27.7 °F 19.6 °F 22.1 °F 80% 29.75 in 10.0 mi North 8.1 mph - N/A   Mostly Cloudy
8:55 AM 28.8 °F 20.9 °F 22.3 °F 77% 29.75 in 10.0 mi North 8.1 mph - N/A   Overcast
9:14 AM 29.3 °F 22.3 °F 22.6 °F 76% 29.76 in 10.0 mi NNW 6.9 mph - N/A   Overcast
9:35 AM 30.0 °F 22.4 °F 22.5 °F 73% 29.76 in 10.0 mi North 8.1 mph - N/A   Overcast
9:54 AM 30.9 °F 22.8 °F 22.8 °F 72% 29.76 in 10.0 mi North 9.2 mph - N/A   Overcast
10:14 AM 31.5 °F 23.5 °F 23.2 °F 71% 29.76 in 10.0 mi NNW 9.2 mph - N/A   Overcast
10:35 AM 32.0 °F 23.6 °F 23.5 °F 71% 29.77 in 10.0 mi NNW 10.4 mph - N/A   Overcast
10:54 AM 32.0 °F 23.0 °F 23.2 °F 70% 29.77 in 10.0 mi NNW 11.5 mph - N/A   Overcast
11:15 AM 33.1 °F 24.4 °F 23.5 °F 68% 29.78 in 10.0 mi NNW 11.5 mph - N/A   Overcast
11:34 AM 33.8 °F 24.8 °F 23.7 °F 67% 29.78 in 10.0 mi NNW 12.7 mph - N/A   Overcast
11:54 AM 34.9 °F 26.6 °F 23.4 °F 63% 29.78 in 10.0 mi North 11.5 mph 19.6 mph N/A   Overcast
12:14 PM 35.8 °F 26.9 °F 22.8 °F 59% 29.78 in 10.0 mi North 13.8 mph - N/A   Overcast
12:34 PM 36.0 °F 28.0 °F 22.3 °F 58% 29.79 in 10.0 mi NNW 11.5 mph 20.7 mph N/A   Overcast
12:55 PM 35.6 °F 27.5 °F 22.1 °F 58% 29.79 in 10.0 mi NNW 11.5 mph 17.3 mph N/A   Overcast
1:14 PM 35.1 °F 25.9 °F 22.8 °F 61% 29.80 in 10.0 mi NNW 13.8 mph - N/A   Overcast
1:34 PM 35.2 °F 26.2 °F 23.4 °F 62% 29.80 in 10.0 mi NNW 13.8 mph 19.6 mph N/A   Overcast
1:55 PM 36.5 °F 28.7 °F 22.6 °F 57% 29.80 in 10.0 mi NNW 11.5 mph 17.3 mph N/A   Overcast
2:14 PM 36.9 °F 28.7 °F 19.6 °F 50% 29.80 in 10.0 mi North 12.7 mph 18.4 mph N/A   Overcast
2:35 PM 36.0 °F 28.5 °F 21.4 °F 55% 29.81 in 10.0 mi NNW 10.4 mph 19.6 mph N/A   Overcast
2:55 PM 36.7 °F 28.0 °F 19.9 °F 51% 29.81 in 10.0 mi North 13.8 mph 23.0 mph N/A   Overcast
3:14 PM 36.9 °F 30.7 °F 19.8 °F 50% 29.81 in 10.0 mi NNW 8.1 mph 18.4 mph N/A   Overcast
3:35 PM 36.9 °F 29.1 °F 20.5 °F 52% 29.82 in 10.0 mi North 11.5 mph - N/A   Overcast
3:54 PM 37.0 °F 28.9 °F 20.8 °F 52% 29.82 in 10.0 mi NNW 12.7 mph 21.9 mph N/A   Overcast
4:14 PM 37.6 °F 28.8 °F 20.5 °F 50% 29.82 in 10.0 mi NW 15.0 mph - N/A   Overcast
4:35 PM 37.4 °F 29.3 °F 21.7 °F 53% 29.83 in 10.0 mi NNW 12.7 mph 17.3 mph N/A   Overcast
4:54 PM 37.4 °F 28.9 °F 21.4 °F 52% 29.83 in 10.0 mi NNW 13.8 mph 18.4 mph N/A   Overcast
5:14 PM 37.4 °F 29.3 °F 21.6 °F 53% 29.84 in 10.0 mi NNW 12.7 mph 17.3 mph N/A   Overcast
5:35 PM 37.0 °F 29.3 °F 21.2 °F 53% 29.84 in 10.0 mi NNW 11.5 mph - N/A   Overcast
5:54 PM 37.0 °F 28.5 °F 21.0 °F 52% 29.85 in 10.0 mi NNW 13.8 mph - N/A   Overcast
6:15 PM 36.7 °F 31.2 °F 21.6 °F 54% 29.86 in 10.0 mi North 6.9 mph - N/A   Overcast
6:34 PM 36.5 °F 27.8 °F 21.6 °F 55% 29.86 in 10.0 mi NNW 13.8 mph 17.3 mph N/A   Overcast
6:54 PM 36.3 °F 28.4 °F 21.4 °F 55% 29.88 in 10.0 mi NNW 11.5 mph - N/A   Overcast
7:14 PM 36.1 °F 30.6 °F 21.9 °F 56% 29.89 in 10.0 mi NNW 6.9 mph - N/A   Overcast
7:34 PM 35.8 °F 28.3 °F 21.9 °F 57% 29.90 in 10.0 mi NNW 10.4 mph - N/A   Overcast
7:55 PM 35.2 °F 27.1 °F 22.6 °F 60% 29.91 in 10.0 mi NNW 11.5 mph 17.3 mph N/A   Overcast
8:14 PM 34.5 °F 26.2 °F 23.9 °F 65% 29.92 in 10.0 mi NW 11.5 mph - N/A   Overcast
8:34 PM 34.2 °F 26.8 °F 23.9 °F 66% 29.93 in 10.0 mi NNW 9.2 mph - N/A   Overcast
8:54 PM 33.8 °F 25.8 °F 23.9 °F 67% 29.94 in 10.0 mi NNW 10.4 mph - N/A   Overcast
9:15 PM 33.6 °F 25.6 °F 24.1 °F 68% 29.95 in 10.0 mi NW 10.4 mph - N/A   Overcast
9:34 PM 32.9 °F 25.3 °F 24.6 °F 72% 29.96 in 10.0 mi NW 9.2 mph - N/A   Overcast
9:54 PM 32.5 °F 24.2 °F 24.6 °F 73% 29.96 in 10.0 mi NW 10.4 mph - N/A   Overcast
10:14 PM 32.9 °F 25.3 °F 24.3 °F 71% 29.97 in 10.0 mi NW 9.2 mph - N/A   Overcast
10:35 PM 32.5 °F 24.8 °F 24.4 °F 72% 29.98 in 10.0 mi NW 9.2 mph - N/A   Overcast
10:55 PM 32.4 °F 25.3 °F 24.4 °F 73% 29.98 in 10.0 mi NW 8.1 mph - N/A   Overcast
11:14 PM 32.5 °F 24.2 °F 24.6 °F 73% 29.98 in 10.0 mi NW 10.4 mph - N/A   Overcast
11:35 PM 32.9 °F 24.7 °F 24.6 °F 72% 29.99 in 10.0 mi NW 10.4 mph - N/A   Overcast
11:54 PM 32.5 °F 25.5 °F 25.3 °F 75% 29.99 in 10.0 mi NW 8.1 mph - N/A   Overcast